timestamp,surface_pressure_avg,surface_temp_avg,battery_voltage,lat,long
2021-05-08 00:09:01+00:00,277.4147,4.7,13.05,47.84626,-54.09684
2021-05-08 00:19:01+00:00,272.1464,4.78,12.73,47.84626,-54.09684
2021-05-08 00:29:01+00:00,257.3981,4.9,12.73,47.84626,-54.09684
2021-05-08 00:39:01+00:00,250.6165,5.0,12.73,47.84626,-54.09684
2021-05-08 00:49:01+00:00,254.4048,5.06,12.73,47.84626,-54.09684
2021-05-08 00:59:01+00:00,246.9781,5.06,12.73,47.84626,-54.09684
2021-05-08 01:09:01+00:00,229.9331,5.1,12.73,47.84626,-54.09684
2021-05-08 01:19:01+00:00,223.0864,5.1,12.65,47.84626,-54.09684
2021-05-08 01:29:01+00:00,220.8981,5.1,12.65,47.84626,-54.09684
2021-05-08 01:39:01+00:00,210.5531,5.04,12.65,47.84626,-54.09684
2021-05-08 01:49:01+00:00,204.9082,5.0,12.65,47.84626,-54.09684
2021-05-08 01:59:01+00:00,208.8132,5.0,12.65,47.84626,-54.09684
2021-05-08 02:09:01+00:00,207.6048,4.91,12.65,47.84626,-54.09684
2021-05-08 02:19:01+00:00,198.1665,5.07,12.65,47.84626,-54.09684
2021-05-08 02:29:01+00:00,193.7247,5.3,12.65,47.84626,-54.09684
2021-05-08 02:39:01+00:00,197.9814,5.4,12.65,47.84626,-54.09684
2021-05-08 02:49:01+00:00,198.4398,5.4,12.65,47.84626,-54.09684
2021-05-08 02:59:01+00:00,192.2248,5.47,12.65,47.84626,-54.09684
2021-05-08 03:09:01+00:00,191.2831,5.54,12.65,47.84626,-54.09684
2021-05-08 03:19:00+00:00,196.8148,5.6,12.65,47.84626,-54.09684
2021-05-08 03:29:00+00:00,193.1798,5.67,12.65,47.84626,-54.09684
2021-05-08 03:39:00+00:00,191.1915,5.76,12.65,47.84626,-54.09684
2021-05-08 03:49:00+00:00,194.0631,5.7,12.65,47.84626,-54.09684
2021-05-08 03:59:00+00:00,195.8181,5.6,12.65,47.84626,-54.09684
2021-05-08 04:09:00+00:00,199.5547,5.5,12.65,47.84626,-54.09684
2021-05-08 04:19:01+00:00,199.6481,5.5,12.65,47.84626,-54.09684
2021-05-08 04:29:01+00:00,196.4831,5.44,12.65,47.84626,-54.09684
2021-05-08 04:39:01+00:00,200.8998,5.4,12.65,47.84626,-54.09684
2021-05-08 04:49:01+00:00,204.0765,5.42,12.65,47.84626,-54.09684
2021-05-08 04:59:01+00:00,199.1431,5.4,12.65,47.84626,-54.09684
2021-05-08 05:09:01+00:00,199.7431,5.4,12.65,47.84626,-54.09684
2021-05-08 05:19:00+00:00,212.8315,5.42,12.65,47.84626,-54.09684
2021-05-08 05:29:00+00:00,216.763,5.48,12.65,47.84626,-54.09684
2021-05-08 05:39:00+00:00,215.0247,5.49,12.65,47.84626,-54.09684
2021-05-08 05:49:00+00:00,224.8664,5.4,12.65,47.84626,-54.09684
2021-05-08 05:59:00+00:00,233.5064,5.0,12.65,47.84626,-54.09684
2021-05-08 06:09:00+00:00,235.0215,4.94,12.65,47.84626,-54.09684
2021-05-08 06:19:01+00:00,236.5648,4.96,12.57,47.84626,-54.09684
2021-05-08 06:29:01+00:00,244.6864,4.96,12.57,47.84626,-54.09684
2021-05-08 06:39:01+00:00,247.6964,4.92,12.57,47.84626,-54.09684
2021-05-08 06:49:01+00:00,248.4231,4.9,12.57,47.84626,-54.09684
2021-05-08 06:59:01+00:00,256.6614,4.9,12.57,47.84626,-54.09684
2021-05-08 07:09:01+00:00,267.9847,4.9,12.57,47.84626,-54.09684
2021-05-08 07:19:01+00:00,272.5348,4.9,12.57,47.84626,-54.09684
2021-05-08 07:29:01+00:00,277.2748,4.96,12.57,47.84626,-54.09684
2021-05-08 07:39:01+00:00,286.0464,4.8,12.57,47.84626,-54.09684
2021-05-08 07:49:01+00:00,288.6897,4.8,12.57,47.84626,-54.09684
2021-05-08 07:59:01+00:00,286.753,4.85,12.57,47.84626,-54.09684
2021-05-08 08:09:01+00:00,299.8014,4.8,12.57,47.84626,-54.09684
2021-05-08 08:19:01+00:00,308.4146,4.8,12.57,47.84626,-54.09684
2021-05-08 08:29:01+00:00,304.8563,4.83,12.57,47.84626,-54.09684
2021-05-08 08:39:01+00:00,305.0496,4.84,12.57,47.84626,-54.09684
2021-05-08 08:49:01+00:00,317.6647,4.8,12.57,47.84626,-54.09684
2021-05-08 08:59:01+00:00,319.2196,4.8,12.57,47.84626,-54.09684
2021-05-08 09:09:01+00:00,312.113,4.8,12.57,47.84626,-54.09684
2021-05-08 09:19:01+00:00,317.1279,4.8,12.57,47.84626,-54.09684
2021-05-08 09:29:01+00:00,329.1096,4.79,12.57,47.84626,-54.09684
2021-05-08 09:39:01+00:00,329.8364,4.8,12.57,47.84626,-54.09684
2021-05-08 09:49:01+00:00,323.9597,4.89,12.57,47.84626,-54.09684
2021-05-08 09:59:01+00:00,328.4547,4.8,12.57,47.84626,-54.09684
2021-05-08 10:09:01+00:00,338.9380000000001,4.7,12.57,47.84626,-54.09684
2021-05-08 10:19:01+00:00,331.3697,4.89,12.57,47.84626,-54.09684
2021-05-08 10:29:01+00:00,324.338,4.9,12.57,47.84626,-54.09684
2021-05-08 10:39:01+00:00,330.9530000000001,4.79,12.57,47.84626,-54.09684
2021-05-08 10:49:01+00:00,326.3914,4.82,12.57,47.84626,-54.09684
2021-05-08 10:59:01+00:00,309.713,5.03,12.57,47.84626,-54.09684
2021-05-08 11:09:01+00:00,314.0197,4.9,12.57,47.84626,-54.09684
2021-05-08 11:19:01+00:00,323.3147,4.7,12.65,47.84626,-54.09684
2021-05-08 11:29:01+00:00,310.8362,4.85,12.65,47.84626,-54.09684
2021-05-08 11:39:01+00:00,295.4564,4.9,12.65,47.84626,-54.09684
2021-05-08 11:49:01+00:00,301.1379,4.8,12.65,47.84626,-54.09684
2021-05-08 11:59:01+00:00,301.6913,4.8,12.65,47.84626,-54.09684
2021-05-08 12:09:01+00:00,283.0064,4.88,12.65,47.84626,-54.09684
2021-05-08 12:19:01+00:00,273.278,4.9,12.97,47.84626,-54.09684
2021-05-08 12:29:01+00:00,273.108,5.04,12.97,47.84626,-54.09684
2021-05-08 12:39:01+00:00,268.0914,5.04,12.97,47.84626,-54.09684
2021-05-08 12:49:01+00:00,253.7381,5.0,12.97,47.84626,-54.09684
2021-05-08 12:59:01+00:00,248.4998,4.9,12.97,47.84626,-54.09684
2021-05-08 13:09:01+00:00,248.8364,4.9,12.97,47.84626,-54.09684
2021-05-08 13:19:01+00:00,249.0063,4.9,14.08,47.84626,-54.09684
2021-05-08 13:29:01+00:00,243.1397,4.9,14.08,47.84626,-54.09684
2021-05-08 13:39:01+00:00,235.2397,4.9,14.08,47.84626,-54.09684
2021-05-08 13:49:01+00:00,232.5364,4.9,14.08,47.84626,-54.09684
2021-05-08 13:59:01+00:00,232.5098,4.9,14.08,47.84626,-54.09684
2021-05-08 14:09:01+00:00,221.5531,4.9,14.08,47.84626,-54.09684
2021-05-08 14:19:01+00:00,207.7914,4.96,14.24,47.84626,-54.09684
2021-05-08 14:29:01+00:00,199.8281,5.0,14.24,47.84626,-54.09684
2021-05-08 14:39:01+00:00,198.9632,5.0,14.24,47.84626,-54.09684
2021-05-08 14:49:01+00:00,199.3098,5.0,14.24,47.84626,-54.09684
2021-05-08 14:59:01+00:00,194.0698,5.0,14.24,47.84626,-54.09684
2021-05-08 15:09:01+00:00,194.8831,5.01,14.24,47.84626,-54.09684
2021-05-08 15:19:01+00:00,194.8048,5.0,14.24,47.84626,-54.09684
2021-05-08 15:29:01+00:00,188.9448,5.0,14.24,47.84626,-54.09684
2021-05-08 15:39:01+00:00,191.4231,5.0,14.24,47.84626,-54.09684
2021-05-08 15:49:01+00:00,203.4531,5.0,14.24,47.84626,-54.09684
2021-05-08 15:59:01+00:00,208.9148,5.0,14.24,47.84626,-54.09684
2021-05-08 16:09:01+00:00,205.3264,5.0,14.24,47.84626,-54.09684
2021-05-08 16:19:01+00:00,205.3914,5.0,14.24,47.84626,-54.09684
2021-05-08 16:29:01+00:00,210.0497,5.0,14.24,47.84626,-54.09684
2021-05-08 16:39:01+00:00,210.1964,5.0,14.24,47.84626,-54.09684
2021-05-08 16:49:01+00:00,212.6114,5.0,14.24,47.84626,-54.09684
2021-05-08 16:59:01+00:00,212.5964,5.0,14.24,47.84626,-54.09684
2021-05-08 17:09:01+00:00,205.6681,5.0,14.24,47.84626,-54.09684
2021-05-08 17:19:00+00:00,202.7498,5.0,14.08,47.84626,-54.09684
2021-05-08 17:29:00+00:00,218.7314,5.0,14.08,47.84626,-54.09684
2021-05-08 17:39:00+00:00,227.9097,5.0,14.08,47.84626,-54.09684
2021-05-08 17:49:00+00:00,219.3831,5.0,14.08,47.84626,-54.09684
2021-05-08 17:59:00+00:00,222.3364,5.04,14.08,47.84626,-54.09684
2021-05-08 18:09:00+00:00,235.6997,5.0,14.08,47.84626,-54.09684
2021-05-08 18:19:00+00:00,241.7514,4.93,14.08,47.84626,-54.09684
2021-05-08 18:29:00+00:00,241.9998,5.0,14.08,47.84626,-54.09684
2021-05-08 18:39:00+00:00,242.4848,5.1,14.08,47.84626,-54.09684
2021-05-08 18:49:00+00:00,246.7781,5.16,14.08,47.84626,-54.09684
2021-05-08 18:59:00+00:00,257.2214,5.1,14.08,47.84626,-54.09684
2021-05-08 19:09:00+00:00,260.9648,5.09,14.08,47.84626,-54.09684
2021-05-08 19:19:01+00:00,260.3264,5.09,14.08,47.84626,-54.09684
2021-05-08 19:29:01+00:00,266.6681,5.1,14.08,47.84626,-54.09684
2021-05-08 19:39:01+00:00,274.2481,5.18,14.08,47.84626,-54.09684
2021-05-08 19:49:01+00:00,281.9447,5.21,14.08,47.84626,-54.09684
2021-05-08 19:59:01+00:00,294.1447,5.28,14.08,47.84626,-54.09684
2021-05-08 20:09:01+00:00,304.8063,5.29,14.08,47.84626,-54.09684
2021-05-08 20:19:01+00:00,308.2447,5.27,13.92,47.84626,-54.09684
2021-05-08 20:29:01+00:00,312.2396,5.29,13.92,47.84626,-54.09684
2021-05-08 20:39:01+00:00,317.8196,5.3,13.92,47.84626,-54.09684
2021-05-08 20:49:01+00:00,318.7764,5.31,13.92,47.84626,-54.09684
2021-05-08 20:59:01+00:00,325.2579,5.37,13.92,47.84626,-54.09684
2021-05-08 21:09:01+00:00,327.0897,5.4,13.92,47.84626,-54.09684
2021-05-08 21:19:00+00:00,317.1713,5.4,13.68,47.84626,-54.09684
2021-05-08 21:29:00+00:00,321.3713,5.4,13.68,47.84626,-54.09684
2021-05-08 21:39:00+00:00,331.7813,5.4,13.68,47.84626,-54.09684
2021-05-08 21:49:00+00:00,339.1013,5.4,13.68,47.84626,-54.09684
2021-05-08 21:59:00+00:00,335.8263,5.4,13.68,47.84626,-54.09684
2021-05-08 22:09:00+00:00,336.468,5.4,13.68,47.84626,-54.09684
2021-05-08 22:19:01+00:00,342.2913,5.4,13.37,47.84626,-54.09684
2021-05-08 22:29:01+00:00,349.8964,5.4,13.37,47.84626,-54.09684
2021-05-08 22:39:01+00:00,342.1813,5.38,13.37,47.84626,-54.09684
2021-05-08 22:49:01+00:00,329.2313,5.36,13.37,47.84626,-54.09684
2021-05-08 22:59:01+00:00,333.038,5.3,13.37,47.84626,-54.09684
2021-05-08 23:09:01+00:00,346.1463,5.1,13.37,47.84626,-54.09684
2021-05-08 23:19:01+00:00,340.7397,5.14,12.97,47.84626,-54.09684
2021-05-08 23:29:01+00:00,333.3347,5.25,12.97,47.84626,-54.09684
2021-05-08 23:39:01+00:00,337.9029,5.3,12.97,47.84626,-54.09684
2021-05-08 23:49:01+00:00,337.5763,5.29,12.97,47.84626,-54.09684
2021-05-08 23:59:01+00:00,335.2413,5.3,12.97,47.84626,-54.09684
